DLH65G EDDF-LIPE

Flight info

Callsign DLH65G
Flight time 1h 2m
Altitude 31000
Route ANEKI2L/18 ANEKI Y163 NATOR DCT TRA DCT ARGAX DCT RESIA DCT ATPED DCT MOVOR DCT ADOSA/N0360F190 M738 BENUS
Aircraft A320/M-SDE3FGHIRWY/LB1

Departure

Time 2026-04-15 12:30
Airport Frankfurt Main Airport (EDDF)

Arrival

Time 2026-04-15 13:32
Airport Bologna Guglielmo Marconi Airport (LIPE)
Time Latitude Longitude Altitude Speed Heading
2026-04-15 12:08 50.04853 8.56941 359 ft 0 kts 295°
2026-04-15 12:16 50.04850 8.56953 356 ft 2 kts 295°
2026-04-15 12:17 50.04843 8.56975 359 ft 2 kts 295°
2026-04-15 12:17 50.04837 8.56995 358 ft 2 kts 295°
2026-04-15 12:17 50.04831 8.57019 355 ft 2 kts 274°
2026-04-15 12:17 50.04832 8.57044 355 ft 2 kts 249°
2026-04-15 12:18 50.04839 8.57066 355 ft 2 kts 228°
2026-04-15 12:18 50.04845 8.57076 355 ft 0 kts 216°
2026-04-15 12:19 50.04845 8.57077 355 ft 0 kts 216°
2026-04-15 12:20 50.04835 8.57065 355 ft 7 kts 215°
2026-04-15 12:20 50.04793 8.57035 355 ft 7 kts 204°
2026-04-15 12:21 50.04715 8.56980 359 ft 19 kts 205°
2026-04-15 12:21 50.04607 8.56913 356 ft 14 kts 194°
2026-04-15 12:21 50.04516 8.56880 356 ft 13 kts 192°
2026-04-15 12:21 50.04410 8.56845 359 ft 23 kts 192°
2026-04-15 12:22 50.04264 8.56801 358 ft 7 kts 190°
2026-04-15 12:22 50.04240 8.56754 359 ft 5 kts 248°
2026-04-15 12:22 50.04205 8.56607 358 ft 29 kts 250°
2026-04-15 12:22 50.04133 8.56298 357 ft 31 kts 249°
2026-04-15 12:23 50.04056 8.55982 356 ft 32 kts 249°
2026-04-15 12:23 50.03978 8.55661 357 ft 32 kts 250°
2026-04-15 12:23 50.03906 8.55354 360 ft 32 kts 249°
2026-04-15 12:23 50.03826 8.55023 355 ft 33 kts 250°
2026-04-15 12:24 50.03746 8.54689 358 ft 33 kts 250°
2026-04-15 12:24 50.03666 8.54350 359 ft 33 kts 251°
2026-04-15 12:24 50.03599 8.54071 357 ft 23 kts 250°
2026-04-15 12:24 50.03544 8.53826 357 ft 22 kts 248°
2026-04-15 12:25 50.03503 8.53662 358 ft 14 kts 250°
2026-04-15 12:25 50.03471 8.53528 356 ft 12 kts 247°
2026-04-15 12:25 50.03441 8.53412 356 ft 11 kts 249°
2026-04-15 12:25 50.03418 8.53312 358 ft 9 kts 250°
2026-04-15 12:26 50.03399 8.53233 357 ft 7 kts 249°
2026-04-15 12:26 50.03373 8.53122 358 ft 16 kts 249°
2026-04-15 12:26 50.03336 8.52967 356 ft 15 kts 250°
2026-04-15 12:26 50.03303 8.52830 358 ft 13 kts 250°
2026-04-15 12:27 50.03281 8.52736 357 ft 3 kts 250°
2026-04-15 12:27 50.03267 8.52679 357 ft 16 kts 243°
2026-04-15 12:28 50.03168 8.52596 359 ft 16 kts 180°
2026-04-15 12:28 50.03152 8.52596 359 ft 0 kts 179°
2026-04-15 12:29 50.03139 8.52596 359 ft 10 kts 179°
2026-04-15 12:29 50.02833 8.52604 356 ft 81 kts 179°
2026-04-15 12:29 50.02055 8.52609 356 ft 140 kts 180°
2026-04-15 12:29 50.00929 8.52612 489 ft 172 kts 180°
2026-04-15 12:30 49.99837 8.52622 1153 ft 170 kts 178°
2026-04-15 12:30 49.98644 8.52667 1915 ft 175 kts 178°
2026-04-15 12:30 49.97366 8.52764 2251 ft 195 kts 176°
2026-04-15 12:30 49.95924 8.52887 2523 ft 220 kts 175°
2026-04-15 12:31 49.94363 8.53017 3182 ft 227 kts 176°
2026-04-15 12:31 49.92777 8.53143 4016 ft 229 kts 176°
2026-04-15 12:31 49.91182 8.53261 4965 ft 230 kts 176°
2026-04-15 12:31 49.89578 8.53374 5854 ft 232 kts 177°
2026-04-15 12:32 49.87958 8.53486 6711 ft 234 kts 178°
2026-04-15 12:32 49.86867 8.53564 7213 ft 236 kts 178°
2026-04-15 12:32 49.85215 8.53676 7997 ft 240 kts 178°
2026-04-15 12:32 49.83534 8.53788 8750 ft 244 kts 178°
2026-04-15 12:33 49.81828 8.53902 9522 ft 248 kts 179°
2026-04-15 12:33 49.80092 8.54018 10299 ft 251 kts 178°
2026-04-15 12:33 49.78333 8.54128 11013 ft 255 kts 181°
2026-04-15 12:33 49.76519 8.53955 11461 ft 272 kts 186°
2026-04-15 12:34 49.74556 8.53698 11710 ft 295 kts 186°
2026-04-15 12:34 49.72428 8.53410 11912 ft 318 kts 186°
2026-04-15 12:34 49.70152 8.53099 12191 ft 336 kts 186°
2026-04-15 12:34 49.67792 8.52781 12806 ft 343 kts 186°
2026-04-15 12:35 49.65397 8.52463 13531 ft 348 kts 186°
2026-04-15 12:35 49.62989 8.52143 14192 ft 352 kts 186°
2026-04-15 12:35 49.60538 8.51819 14810 ft 355 kts 186°
2026-04-15 12:35 49.58064 8.51494 15433 ft 359 kts 186°
2026-04-15 12:36 49.55566 8.51166 16038 ft 362 kts 186°
2026-04-15 12:36 49.53041 8.50832 16645 ft 366 kts 186°
2026-04-15 12:36 49.50494 8.50499 17251 ft 369 kts 186°
2026-04-15 12:36 49.47923 8.50163 17859 ft 373 kts 186°
2026-04-15 12:37 49.45329 8.49822 18453 ft 376 kts 186°
2026-04-15 12:37 49.42708 8.49480 18973 ft 380 kts 186°
2026-04-15 12:37 49.40061 8.49134 19486 ft 383 kts 186°
2026-04-15 12:37 49.37391 8.48786 20012 ft 387 kts 186°
2026-04-15 12:38 49.34695 8.48432 20521 ft 390 kts 186°
2026-04-15 12:38 49.31978 8.48075 21040 ft 394 kts 186°
2026-04-15 12:38 49.29238 8.47717 21551 ft 397 kts 186°
2026-04-15 12:38 49.26472 8.47358 22060 ft 401 kts 186°
2026-04-15 12:39 49.23680 8.46996 22556 ft 404 kts 186°
2026-04-15 12:39 49.20866 8.46634 23047 ft 408 kts 186°
2026-04-15 12:39 49.18028 8.46264 23529 ft 411 kts 186°
2026-04-15 12:39 49.15169 8.45891 23962 ft 414 kts 186°
2026-04-15 12:40 49.12284 8.45517 24332 ft 418 kts 186°
2026-04-15 12:40 49.09374 8.45141 24690 ft 421 kts 186°
2026-04-15 12:40 49.06448 8.44704 25035 ft 424 kts 190°
2026-04-15 12:40 49.03555 8.43774 25371 ft 427 kts 194°
2026-04-15 12:41 49.00649 8.42749 25710 ft 430 kts 194°
2026-04-15 12:41 48.97729 8.41725 26047 ft 433 kts 194°
2026-04-15 12:41 48.94785 8.40700 26379 ft 436 kts 194°
2026-04-15 12:41 48.91816 8.39675 26713 ft 439 kts 194°
2026-04-15 12:42 48.88831 8.38647 27042 ft 442 kts 194°
2026-04-15 12:42 48.86842 8.37962 27258 ft 444 kts 194°
2026-04-15 12:42 48.82835 8.36581 27675 ft 448 kts 194°
2026-04-15 12:42 48.79789 8.35528 27987 ft 450 kts 194°
2026-04-15 12:43 48.76726 8.34455 28295 ft 453 kts 195°
2026-04-15 12:43 48.73653 8.33343 28601 ft 456 kts 195°
2026-04-15 12:43 48.70559 8.32203 28889 ft 459 kts 195°
2026-04-15 12:43 48.67450 8.31049 29191 ft 461 kts 195°
2026-04-15 12:44 48.65344 8.30267 29368 ft 463 kts 195°
2026-04-15 12:44 48.62203 8.29108 29633 ft 466 kts 195°
2026-04-15 12:44 48.59044 8.27952 29908 ft 468 kts 195°
2026-04-15 12:44 48.55867 8.26802 30167 ft 471 kts 195°
2026-04-15 12:45 48.52710 8.25684 30385 ft 474 kts 193°
2026-04-15 12:45 48.49388 8.25039 30599 ft 478 kts 184°
2026-04-15 12:45 48.46097 8.25147 30806 ft 481 kts 175°
2026-04-15 12:45 48.42778 8.25887 31011 ft 484 kts 171°
2026-04-15 12:46 48.39452 8.26705 31174 ft 485 kts 171°
2026-04-15 12:46 48.36158 8.27513 31211 ft 472 kts 171°
2026-04-15 12:46 48.32944 8.28301 31213 ft 465 kts 171°
2026-04-15 12:47 48.26580 8.29837 31215 ft 462 kts 171°
2026-04-15 12:47 48.20187 8.31364 31214 ft 462 kts 171°
2026-04-15 12:48 48.13839 8.32886 31211 ft 462 kts 171°
2026-04-15 12:48 48.07524 8.34414 31218 ft 463 kts 171°
2026-04-15 12:49 48.01169 8.35961 31210 ft 463 kts 171°
2026-04-15 12:49 47.94808 8.37505 31207 ft 463 kts 171°
2026-04-15 12:50 47.88405 8.39040 31204 ft 463 kts 171°
2026-04-15 12:50 47.82079 8.40547 31208 ft 464 kts 171°
2026-04-15 12:51 47.75709 8.42067 31214 ft 464 kts 171°
2026-04-15 12:51 47.69943 8.44480 31211 ft 463 kts 154°
2026-04-15 12:52 47.64968 8.49182 31207 ft 459 kts 136°
2026-04-15 12:52 47.60396 8.55417 31207 ft 458 kts 135°
2026-04-15 12:53 47.55696 8.61800 31205 ft 459 kts 135°
2026-04-15 12:53 47.52141 8.66615 31203 ft 459 kts 134°
2026-04-15 12:54 47.47437 8.72995 31207 ft 459 kts 134°
2026-04-15 12:54 47.42724 8.79367 31208 ft 459 kts 134°
2026-04-15 12:55 47.38014 8.85722 31205 ft 459 kts 134°
2026-04-15 12:55 47.33295 8.92079 31202 ft 459 kts 134°
2026-04-15 12:56 47.28569 8.98419 31196 ft 459 kts 134°
2026-04-15 12:56 47.23840 9.04739 31187 ft 459 kts 134°
2026-04-15 12:57 47.19107 9.11055 31177 ft 459 kts 134°
2026-04-15 12:57 47.14374 9.17367 31172 ft 460 kts 134°
2026-04-15 12:58 47.09628 9.23674 31165 ft 460 kts 134°
2026-04-15 12:58 47.04877 9.29958 31156 ft 460 kts 134°
2026-04-15 12:59 46.97758 9.39370 31144 ft 459 kts 134°
2026-04-15 12:59 46.93002 9.45625 31133 ft 459 kts 134°
2026-04-15 13:00 46.88247 9.51858 31141 ft 459 kts 134°
2026-04-15 13:00 46.83490 9.58092 31127 ft 458 kts 133°
2026-04-15 13:01 46.78737 9.64319 31155 ft 460 kts 133°
2026-04-15 13:01 46.73977 9.70529 31176 ft 459 kts 133°
2026-04-15 13:02 46.69218 9.76714 31178 ft 459 kts 133°
2026-04-15 13:02 46.64453 9.82888 31179 ft 458 kts 133°
2026-04-15 13:03 46.59690 9.89053 31196 ft 458 kts 133°
2026-04-15 13:03 46.54929 9.95206 31210 ft 458 kts 133°
2026-04-15 13:04 46.50160 10.01341 31212 ft 458 kts 133°
2026-04-15 13:04 46.45369 10.07416 31198 ft 457 kts 134°
2026-04-15 13:05 46.40462 10.13298 31193 ft 458 kts 135°
2026-04-15 13:05 46.35526 10.19107 31190 ft 457 kts 135°
2026-04-15 13:06 46.30616 10.24933 31173 ft 456 kts 134°
2026-04-15 13:06 46.25732 10.30763 31175 ft 455 kts 134°
2026-04-15 13:07 46.20858 10.36581 31172 ft 455 kts 134°
2026-04-15 13:07 46.15977 10.42367 31169 ft 454 kts 134°
2026-04-15 13:08 46.11071 10.48163 31162 ft 462 kts 134°
2026-04-15 13:08 46.06056 10.54102 31161 ft 476 kts 135°
2026-04-15 13:09 46.00926 10.60142 31161 ft 478 kts 135°
2026-04-15 13:09 45.95774 10.66169 31158 ft 477 kts 135°
2026-04-15 13:10 45.90635 10.72177 31162 ft 476 kts 135°
2026-04-15 13:10 45.85502 10.78169 31163 ft 476 kts 136°
2026-04-15 13:11 45.80370 10.84143 31166 ft 475 kts 136°
2026-04-15 13:11 45.75252 10.90105 31172 ft 474 kts 136°
2026-04-15 13:12 45.70130 10.96055 31180 ft 473 kts 136°
2026-04-15 13:12 45.64835 11.01659 31175 ft 479 kts 150°
2026-04-15 13:13 45.61700 11.03300 31172 ft 484 kts 165°
2026-04-15 13:13 45.58395 11.04169 30826 ft 480 kts 168°
2026-04-15 13:13 45.55125 11.04963 30344 ft 473 kts 169°
2026-04-15 13:13 45.51908 11.05727 29801 ft 465 kts 169°
2026-04-15 13:14 45.48732 11.06475 29239 ft 459 kts 169°
2026-04-15 13:14 45.45604 11.07216 28691 ft 453 kts 169°
2026-04-15 13:14 45.42513 11.07955 28152 ft 447 kts 169°
2026-04-15 13:14 45.39464 11.08693 27616 ft 442 kts 169°
2026-04-15 13:15 45.36454 11.09421 27095 ft 436 kts 169°
2026-04-15 13:15 45.33479 11.10140 26591 ft 431 kts 170°
2026-04-15 13:15 45.30545 11.10848 26069 ft 426 kts 170°
2026-04-15 13:15 45.27634 11.11545 25575 ft 421 kts 171°
2026-04-15 13:16 45.24757 11.12232 25090 ft 417 kts 171°
2026-04-15 13:16 45.21915 11.12910 24615 ft 412 kts 171°
2026-04-15 13:16 45.19106 11.13584 24138 ft 407 kts 171°
2026-04-15 13:16 45.16335 11.14253 23672 ft 399 kts 171°
2026-04-15 13:17 45.13648 11.14901 23123 ft 383 kts 171°
2026-04-15 13:17 45.11059 11.15524 22583 ft 373 kts 171°
2026-04-15 13:17 45.08522 11.16130 22057 ft 368 kts 172°
2026-04-15 13:17 45.06008 11.16730 21537 ft 365 kts 171°
2026-04-15 13:18 45.03518 11.17321 21030 ft 362 kts 171°
2026-04-15 13:18 45.01042 11.17908 20519 ft 359 kts 171°
2026-04-15 13:18 44.98617 11.18483 20138 ft 357 kts 171°
2026-04-15 13:18 44.96171 11.19064 19746 ft 356 kts 171°
2026-04-15 13:19 44.93737 11.19644 19367 ft 354 kts 171°
2026-04-15 13:19 44.91314 11.20219 18991 ft 352 kts 171°
2026-04-15 13:19 44.88905 11.20787 18612 ft 350 kts 170°
2026-04-15 13:20 44.87159 11.21200 18325 ft 349 kts 170°
2026-04-15 13:20 44.84769 11.21765 17896 ft 347 kts 170°
2026-04-15 13:20 44.82410 11.22324 17480 ft 345 kts 170°
2026-04-15 13:20 44.80052 11.22882 17058 ft 342 kts 170°
2026-04-15 13:21 44.77690 11.23128 16647 ft 340 kts 182°
2026-04-15 13:21 44.75367 11.22636 16242 ft 338 kts 195°
2026-04-15 13:21 44.73117 11.21703 15842 ft 336 kts 194°
2026-04-15 13:21 44.70821 11.21342 15451 ft 332 kts 174°
2026-04-15 13:22 44.68615 11.22160 15062 ft 328 kts 153°
2026-04-15 13:22 44.66778 11.24013 14655 ft 326 kts 133°
2026-04-15 13:22 44.65518 11.26620 14179 ft 323 kts 116°
2026-04-15 13:22 44.64517 11.29413 13671 ft 316 kts 116°
2026-04-15 13:23 44.63541 11.32123 13141 ft 307 kts 117°
2026-04-15 13:23 44.62587 11.34756 12621 ft 298 kts 117°
2026-04-15 13:23 44.61654 11.37315 12120 ft 292 kts 116°
2026-04-15 13:23 44.60738 11.39827 11616 ft 286 kts 116°
2026-04-15 13:24 44.59840 11.42292 11119 ft 281 kts 116°
2026-04-15 13:24 44.58960 11.44703 10634 ft 275 kts 116°
2026-04-15 13:24 44.58098 11.47062 10156 ft 269 kts 116°
2026-04-15 13:24 44.57264 11.49371 9631 ft 263 kts 115°
2026-04-15 13:25 44.56453 11.51638 9121 ft 257 kts 115°
2026-04-15 13:25 44.55662 11.53857 8596 ft 252 kts 115°
2026-04-15 13:25 44.54884 11.56036 8090 ft 249 kts 115°
2026-04-15 13:25 44.54114 11.58192 7590 ft 246 kts 115°
2026-04-15 13:26 44.53347 11.60315 7091 ft 241 kts 118°
2026-04-15 13:26 44.52252 11.62045 6611 ft 239 kts 144°
2026-04-15 13:26 44.50718 11.62869 6103 ft 239 kts 172°
2026-04-15 13:26 44.49077 11.62606 5591 ft 240 kts 200°
2026-04-15 13:27 44.47579 11.61578 5091 ft 240 kts 205°
2026-04-15 13:27 44.46093 11.60513 4586 ft 240 kts 205°
2026-04-15 13:27 44.44666 11.59294 4059 ft 242 kts 226°
2026-04-15 13:27 44.44042 11.58016 3729 ft 241 kts 250°
2026-04-15 13:28 44.43909 11.55756 3220 ft 232 kts 287°
2026-04-15 13:28 44.44569 11.53797 3007 ft 218 kts 301°
2026-04-15 13:28 44.45281 11.51898 3002 ft 221 kts 298°
2026-04-15 13:28 44.45947 11.49955 3011 ft 222 kts 297°
2026-04-15 13:29 44.46625 11.48018 3012 ft 221 kts 298°
2026-04-15 13:29 44.47318 11.46096 2984 ft 223 kts 298°
2026-04-15 13:29 44.48029 11.44134 2744 ft 229 kts 298°
2026-04-15 13:29 44.48756 11.42129 2411 ft 233 kts 298°
2026-04-15 13:30 44.49496 11.40083 2038 ft 238 kts 298°
2026-04-15 13:30 44.50238 11.38032 1667 ft 232 kts 298°
2026-04-15 13:30 44.50931 11.36112 1307 ft 210 kts 298°
2026-04-15 13:30 44.51566 11.34354 1007 ft 193 kts 297°
2026-04-15 13:31 44.52144 11.32753 678 ft 176 kts 296°
2026-04-15 13:31 44.52659 11.31339 418 ft 157 kts 295°
2026-04-15 13:31 44.53127 11.30031 183 ft 145 kts 295°
2026-04-15 13:31 44.53558 11.28827 126 ft 121 kts 297°
2026-04-15 13:32 44.53849 11.28014 125 ft 58 kts 297°
2026-04-15 13:32 44.53956 11.27683 121 ft 23 kts 274°
2026-04-15 13:32 44.53868 11.27573 126 ft 2 kts 181°
2026-04-15 13:34 44.53864 11.27573 126 ft 2 kts 181°
2026-04-15 13:34 44.53852 11.27573 126 ft 2 kts 178°
2026-04-15 13:34 44.53806 11.27605 126 ft 14 kts 136°
2026-04-15 13:34 44.53744 11.27766 123 ft 22 kts 117°
2026-04-15 13:35 44.53671 11.27965 122 ft 24 kts 117°
2026-04-15 13:35 44.53594 11.28180 124 ft 26 kts 116°
2026-04-15 13:35 44.53511 11.28410 124 ft 27 kts 117°
2026-04-15 13:35 44.53421 11.28655 124 ft 29 kts 117°
2026-04-15 13:36 44.53329 11.28913 126 ft 30 kts 116°
2026-04-15 13:36 44.53234 11.29179 124 ft 24 kts 117°
2026-04-15 13:36 44.53184 11.29198 127 ft 6 kts 209°
2026-04-15 13:36 44.53148 11.29170 125 ft 8 kts 209°
2026-04-15 13:37 44.53058 11.29109 124 ft 11 kts 182°
2026-04-15 13:37 44.53023 11.29168 124 ft 7 kts 117°
2026-04-15 13:37 44.53019 11.29177 125 ft 0 kts 117°